Orbital Elements at Epoch 2459000.5 (2020-May-31.0) TDB
Reference: JPL 42 (heliocentric ecliptic J2000)
Element | Value | Uncertainty (1-sigma) | Units |
e | .1826341821525502 | 3.3309e-08 | |
a | 3.119651698244123 | 1.275e-08 | au |
q | 2.549896661734493 | 1.0606e-07 | au |
i | 2.280661650293129 | 3.582e-06 | deg |
node | 88.91989260121927 | 9.6807e-05 | deg |
peri | 274.3114573293467 | 9.7258e-05 | deg |
M | 92.49419592050536 | 9.8382e-06 | deg |
tp | 2458483.405914271574 (2018-Dec-30.90591427) | 5.4555e-05 | TDB |
period | 2012.600563847532 5.51 | 1.2339e-05 3.378e-08 | d yr |
n | .1788730493604654 | 1.0966e-09 | deg/d |
Q | 3.689406734753752 | 1.5079e-08 | au |
|
| | Orbit Determination Parameters
Additional Information
|